Radiation Dose measured at exhaust stack monitor of Fukushima Daiichi Nuclear Power Station
Date,Time,Unit 5 6 shared exhaust cylinders,Wind Direction,Wind Velocity(m/s)
2023/06/23,00:00,3.6,west-northwest,1.5
2023/06/23,00:10,3.8,northwest,2.3
2023/06/23,00:20,3.8,northwest,2.5
2023/06/23,00:30,3.8,northwest,2.6
2023/06/23,00:40,3.7,north-northwest,2.0
2023/06/23,00:50,3.8,north,2.3
2023/06/23,01:00,3.7,north-northwest,3.5
2023/06/23,01:10,3.7,north-northwest,1.7
2023/06/23,01:20,3.7,west-northwest,1.7
2023/06/23,01:30,3.5,west-northwest,0.9
2023/06/23,01:40,3.8,northwest,4.5
2023/06/23,01:50,3.7,north-northwest,4.0
2023/06/23,02:00,3.8,northwest,3.7
2023/06/23,02:10,3.8,northwest,3.9
2023/06/23,02:20,3.6,west-northwest,5.2
2023/06/23,02:30,3.6,northwest,3.9
2023/06/23,02:40,3.6,north-northwest,2.9
2023/06/23,02:50,3.8,northwest,4.0
2023/06/23,03:00,3.6,northwest,3.5
2023/06/23,03:10,3.7,north-northwest,4.2
2023/06/23,03:20,3.5,north-northwest,4.4
2023/06/23,03:30,3.5,northwest,6.1
2023/06/23,03:40,3.7,northwest,6.3
2023/06/23,03:50,3.6,northwest,6.6
2023/06/23,04:00,3.7,northwest,6.9
2023/06/23,04:10,3.7,north-northwest,4.5
2023/06/23,04:20,3.7,north-northwest,3.7
2023/06/23,04:30,3.7,north-northwest,4.1
2023/06/23,04:40,3.7,northwest,4.3
2023/06/23,04:50,3.7,northwest,3.9
2023/06/23,05:00,3.7,north-northwest,4.5
2023/06/23,05:10,3.7,northwest,3.9
2023/06/23,05:20,3.7,northwest,5.0
2023/06/23,05:30,3.6,northwest,4.7
2023/06/23,05:40,3.7,northwest,6.3
2023/06/23,05:50,3.6,northwest,5.6
2023/06/23,06:00,3.6,northwest,4.4
2023/06/23,06:10,3.8,northwest,4.7
2023/06/23,06:20,3.7,north-northwest,4.4
2023/06/23,06:30,3.8,north-northwest,5.1
2023/06/23,06:40,3.8,north-northwest,4.8
2023/06/23,06:50,3.8,north-northwest,5.7
2023/06/23,07:00,3.8,north-northwest,5.4
2023/06/23,07:10,3.7,north-northwest,4.5
2023/06/23,07:20,3.5,north-northwest,3.0
2023/06/23,07:30,3.7,north-northwest,2.3
2023/06/23,07:40,3.7,north,2.5
2023/06/23,07:50,3.7,north-northwest,4.0
2023/06/23,08:00,3.7,north-northwest,3.8
2023/06/23,08:10,3.6,north-northwest,4.4
2023/06/23,08:20,3.8,north-northwest,4.1
2023/06/23,08:30,3.7,north-northwest,4.0
2023/06/23,08:40,3.6,north-northwest,3.9
2023/06/23,08:50,3.8,north-northwest,3.7
2023/06/23,09:00,3.6,north,4.0
2023/06/23,09:10,3.8,north,3.8
2023/06/23,09:20,3.8,north,3.4
2023/06/23,09:30,3.6,north,3.1
2023/06/23,09:40,3.7,north,3.3
2023/06/23,09:50,3.6,north-northeast,3.3
2023/06/23,10:00,3.8,north,3.3
2023/06/23,10:10,3.8,north,3.6
2023/06/23,10:20,3.6,north-northeast,4.3
2023/06/23,10:30,3.8,north-northeast,4.5
2023/06/23,10:40,3.6,north-northeast,4.5
2023/06/23,10:50,3.9,north-northeast,4.1
2023/06/23,11:00,3.5,north-northeast,3.9
2023/06/23,11:10,3.6,north-northeast,3.8
2023/06/23,11:20,3.7,north-northeast,3.5
2023/06/23,11:30,3.6,north-northeast,3.0
2023/06/23,11:40,3.7,north-northeast,2.5
2023/06/23,11:50,3.5,north-northeast,2.8
2023/06/23,12:00,3.5,northeast,3.1
2023/06/23,12:10,3.7,north-northeast,3.5
2023/06/23,12:20,3.6,north-northeast,3.1
2023/06/23,12:30,3.7,northeast,3.3
2023/06/23,12:40,3.6,north,2.8
2023/06/23,12:50,3.6,east-northeast,2.6
2023/06/23,13:00,3.8,east-northeast,2.2
2023/06/23,13:10,3.7,north-northeast,3.1
2023/06/23,13:20,3.6,north-northeast,2.9
2023/06/23,13:30,3.6,northeast,2.8
2023/06/23,13:40,3.7,north-northeast,2.6
2023/06/23,13:50,3.6,northeast,2.8
2023/06/23,14:00,3.7,north-northeast,3.2
2023/06/23,14:10,3.8,northeast,3.0
2023/06/23,14:20,3.6,northeast,2.6
2023/06/23,14:30,3.7,northeast,2.3
2023/06/23,14:40,3.7,northeast,2.8
2023/06/23,14:50,3.7,northeast,2.0
2023/06/23,15:00,3.6,north-northeast,1.9
2023/06/23,15:10,3.6,northeast,2.0
2023/06/23,15:20,3.5,northeast,2.6
2023/06/23,15:30,3.6,east-northeast,2.2
2023/06/23,15:40,3.6,northeast,2.3
2023/06/23,15:50,3.6,east-northeast,2.3
2023/06/23,16:00,3.8,east-northeast,2.0
2023/06/23,16:10,3.6,east,1.5
2023/06/23,16:20,3.8,east,1.4
2023/06/23,16:30,3.7,east-southeast,1.7
2023/06/23,16:40,3.7,southeast,2.2
2023/06/23,16:50,3.6,east-southeast,1.4
2023/06/23,17:00,3.6,southeast,1.2
2023/06/23,17:10,3.6,east-southeast,2.2
2023/06/23,17:20,3.6,southeast,1.7
2023/06/23,17:30,3.7,southeast,1.7
2023/06/23,17:40,3.7,east-southeast,1.7
2023/06/23,17:50,3.7,south-southeast,1.0
2023/06/23,18:00,3.8,southeast,1.7
2023/06/23,18:10,3.7,south-southeast,2.2
2023/06/23,18:20,3.6,east-southeast,1.6
2023/06/23,18:30,3.6,east-southeast,1.5
2023/06/23,18:40,3.7,east-southeast,1.2
2023/06/23,18:50,3.7,southeast,1.1
2023/06/23,19:00,3.6,east-southeast,1.5
2023/06/23,19:10,3.6,east-southeast,0.6
2023/06/23,19:20,3.5,southeast,1.2
2023/06/23,19:30,3.7,south-southeast,1.2
2023/06/23,19:40,3.5,southeast,1.5
2023/06/23,19:50,3.6,east-southeast,1.2
2023/06/23,20:00,3.6,east-southeast,1.3
2023/06/23,20:10,3.7,east-southeast,0.9
2023/06/23,20:20,3.7,east-southeast,0.9
2023/06/23,20:30,3.8,east,0.9
2023/06/23,20:40,3.7,-,CALM
2023/06/23,20:50,3.7,southeast,0.6
2023/06/23,21:00,3.7,-,CALM
2023/06/23,21:10,3.6,north-northeast,0.6
2023/06/23,21:20,3.7,north-northeast,0.9
2023/06/23,21:30,3.7,north-northwest,1.2
2023/06/23,21:40,3.6,north,0.8
2023/06/23,21:50,3.9,northwest,0.9
2023/06/23,22:00,3.8,-,CALM
2023/06/23,22:10,3.7,-,CALM
2023/06/23,22:20,3.6,east-southeast,0.9
2023/06/23,22:30,3.7,-,CALM
2023/06/23,22:40,3.8,-,CALM
2023/06/23,22:50,3.7,south-southwest,0.6
2023/06/23,23:00,3.6,southeast,1.1
2023/06/23,23:10,3.5,-,CALM
2023/06/23,23:20,3.6,south-southeast,0.9
2023/06/23,23:30,3.7,south,1.4
2023/06/23,23:40,3.6,south-southwest,1.7
2023/06/23,23:50,3.7,south-southwest,1.1
